This is the latest recevied weather packets stored in our database for station/object SR3WXA. If no packets are shown the sender has not sent any weather packets the latest 10 day(s).
| Time | Temp. | Humidity | Pressure | Rain* | Wind** | Luminosity | Snow |
|---|---|---|---|---|---|---|---|
| 1777453962 | 8.89° C | 37% | 1031.1 hPa | 0 mm | - | 123 W/m² | - |
| 1777453720 | 8.89° C | 37% | 1031.2 hPa | 0 mm | - | 141 W/m² | - |
| 1777453662 | 8.89° C | 37% | 1031.2 hPa | 0 mm | - | 141 W/m² | - |
| 1777453414 | 8.89° C | 37% | 1031.2 hPa | 0 mm | - | 155 W/m² | - |
| 1777453362 | 8.89° C | 37% | 1031.2 hPa | 0 mm | - | 155 W/m² | - |
| 1777453062 | 8.89° C | 37% | 1031.2 hPa | 0 mm | - | 751 W/m² | - |
| 1777452806 | 8.89° C | 36% | 1031.2 hPa | 0 mm | - | 652 W/m² | - |
| 1777452762 | 8.89° C | 36% | 1031.2 hPa | 0 mm | - | 652 W/m² | - |
| 1777452462 | 8.89° C | 36% | 1031.1 hPa | 0 mm | - | 668 W/m² | - |
| 1777452162 | 8.89° C | 38% | 1031.3 hPa | 0 mm | - | 664 W/m² | - |
| 1777451919 | 8.89° C | 38% | 1031.2 hPa | 0 mm | - | 629 W/m² | - |
| 1777451862 | 8.89° C | 38% | 1031.2 hPa | 0 mm | - | 629 W/m² | - |
| 1777451562 | 8.89° C | 37% | 1031.3 hPa | 0 mm | - | 619 W/m² | - |
| 1777451262 | 8.33° C | 37% | 1031.2 hPa | 0 mm | - | 610 W/m² | - |
| 1777451006 | 8.89° C | 36% | 1031.3 hPa | 0 mm | - | 81 W/m² | - |
| 1777450962 | 8.89° C | 36% | 1031.3 hPa | 0 mm | - | 81 W/m² | - |
| 1777450662 | 8.89° C | 36% | 1031.2 hPa | 0 mm | - | 599 W/m² | - |
| 1777450406 | 8.89° C | 37% | 1031.2 hPa | 0 mm | - | 587 W/m² | - |
| 1777450362 | 8.89° C | 37% | 1031.2 hPa | 0 mm | - | 587 W/m² | - |
| 1777450061 | 8.89° C | 37% | 1031.3 hPa | 0 mm | - | 578 W/m² | - |
| 1777449761 | 8.33° C | 37% | 1031.2 hPa | 0 mm | - | 571 W/m² | - |
| 1777449521 | 8.33° C | 37% | 1031.2 hPa | 0 mm | - | 564 W/m² | - |
| 1777449461 | 8.33° C | 37% | 1031.2 hPa | 0 mm | - | 564 W/m² | - |
| 1777448602 | 7.78° C | 38% | 1031.2 hPa | 0 mm | - | 534 W/m² | - |
| 1777448562 | 7.78° C | 38% | 1031.2 hPa | 0 mm | - | 534 W/m² | - |
* Rain latest hour (hover to see other rain measurements)
** Current wind speed in m/s (hover to see current wind gust speed)